Regional Weather Roundup
Issued by NWS Grand Forks, ND

Home | Current Version | Previous Version | Graphics & Text | Print | Product List | Glossary On
Versions: 1 2 3 4 5 6 7 8 9 10 11 12 13 14 15 16 17 18 19 20 21 22 23 24 25 26 27 28 29 30 31 32 33 34 35 36 37 38 39 40 41 42 43 44 45 46 47 48 49 50
000
ASUS43 KFGF 181810
RWRFGF
PRAIRIE TO PINES  WEATHER ROUNDUP
NATIONAL WEATHER SERVICE EASTERN NORTH DAKOTA/GRAND FORKS ND
1200 PM CST THU DEC 18 2014

 **SATELLITE DATA USED TO AUGMENT SKY COVER AT AUTOMATED STATIONS**
 *****  WEATHER ACROSS EASTERN NORTH DAKOTA  *****

CITY           SKY/WX    TMP DP  RH WIND       PRES   REMARKS
GRAND FORKS    CLOUDY    17  13  84 S9        30.23F WCI   6
6HR MIN TEMP:   3; 6HR MAX TEMP:  17;

GRAND FRKS AFB CLOUDY    17  17  98 S9        30.22F WCI   5
DEVILS LAKE    CLOUDY    18   9  68 S8        30.10F WCI   7
6HR MIN TEMP:   9; 6HR MAX TEMP:  18;

FARGO          CLOUDY    17  12  80 S10       30.24F WCI   5
WAHPETON ARPT  CLOUDY    16  12  86 SE6       30.24F WCI   7
$$

 ***** WEATHER ACROSS CENTRAL AND WESTERN NORTH DAKOTA  *****

CITY           SKY/WX    TMP DP  RH WIND       PRES   REMARKS
BISMARCK       CLOUDY    21  19  92 S8        30.08F WCI  11
6HR MIN TEMP:  16; 6HR MAX TEMP:  21;

MINOT          CLOUDY    21  16  81 S10       30.04F HAZE    WCI  10
6HR MIN TEMP:  14; 6HR MAX TEMP:  21;

JAMESTOWN      CLOUDY    19  14  81 S9        30.12F WCI   8
6HR MIN TEMP:  13; 6HR MAX TEMP:  19;

MINOT AFB      CLOUDY    21  19  93 S9        30.03F WCI  11
GARRISON         N/A     20  18  92 S8        30.03F WCI  10
WILLISTON      CLOUDY    24  20  84 S6        29.99F WCI  17
6HR MIN TEMP:  21; 6HR MAX TEMP:  24;

DICKINSON      CLOUDY    28  25  88 SW5       29.95F FOG     WCI  23
6HR MIN TEMP:  21; 6HR MAX TEMP:  28;

HETTINGER      CLOUDY    28  25  88 SW6       29.99S WCI  22
6HR MIN TEMP:  20; 6HR MAX TEMP:  28;

$$

 *****  OTHER AIRPORT OBSERVATIONS IN OUR AREA  *****

CITY           SKY/WX    TMP DP  RH WIND       PRES   REMARKS
WALHALLA         N/A     19  16  86 S13       30.18F WCI   7
GRAFTON AIRPOR NOT AVBL
VALLEY CITY AR CLOUDY    18  18 100 SE7       30.16F WCI   8
CANDO          CLOUDY    18  16  93 S13       30.11F WCI   4
CAVALIER APRT  FAIR      16  14  93 S8        30.20F FOG     WCI   5
GWINNER        CLOUDY    23  19  86 MISG      30.19F
SHEYENNE NWR     N/A     18  13  80 SE7       29.95S WCI   9
ROLLA          CLOUDY    14  14 100 S9        30.07F WCI   2
 ***** THE ABOVE OBSERVATIONS ARE NON NWS ARE NOT QUALITY
       CONTROLLED AND MAY MIS-REPORT RAIN FOR SNOW...
$$

  *****  WEATHER ACROSS NORTHERN MINNESOTA  *****

CITY           SKY/WX    TMP DP  RH WIND       PRES   REMARKS
FLAG ISLAND    SUNNY     10   7  85 S9        30.24F WCI  -2
WARROAD        SUNNY     18  12  79 CALM      30.24S
ROSEAU         FAIR      19  14  79 S7        30.23F WCI  10
HALLOCK        MOSUNNY   18  12  79 S13       30.22F WCI   4
THF RVR FALLS  MOSUNNY   18  16  93 S13       30.23S WCI   4
6HR MIN TEMP:   7; 6HR MAX TEMP:  18;

BAUDETTE       SUNNY     18  12  77 S5        30.23F WCI  11
6HR MIN TEMP:   4; 6HR MAX TEMP:  18;

WASKISH        CLOUDY    18  14  86 SE8       30.26S WCI   7
CROOKSTON      PTSUNNY   18  14  86 S13       30.25F WCI   4
$$
  *****  WEATHER ACROSS CENTRAL AND WEST MINNESOTA  *****

CITY           SKY/WX    TMP DP  RH WIND       PRES   REMARKS
FOSSTON        SUNNY     18  12  79 S9        30.23F WCI   6
BEMIDJI        FLURRIES  16  12  86 SE12G17   30.24S WCI   3
PARK RAPIDS    CLOUDY    17  12  80 S10       30.23F HAZE    WCI   5
6HR MIN TEMP:   2; 6HR MAX TEMP:  17;

ELBOW LAKE     CLOUDY    15  13  90 SE9       30.23F WCI   3
6HR MIN TEMP:   8; 6HR MAX TEMP:  15;

WADENA         PTSUNNY   16  10  79 NW8       30.23F WCI   5
DETROIT LAKES  PTSUNNY   18  14  86 S9        30.23F WCI   6
MOORHEAD       PTSUNNY   18  16  93 S10       30.25F WCI   6
FERGUS FALLS   CLOUDY    16  10  79 SE14      30.27F WCI   1
MORRIS MN      CLOUDY    18  16  93 SE8       30.24S WCI   7
STAPLES        FLURRIES  18  12  79 S9        30.24F WCI   6
$$
  *****  WEATHER ELSEWHERE ACROSS MINNESOTA  *****

CITY           SKY/WX    TMP DP  RH WIND       PRES   REMARKS
DULUTH         CLOUDY    25  19  78 SE8       30.23F WCI  16
6HR MIN TEMP:  19; 6HR MAX TEMP:  25; 6HR PCP: TRACE;

INTRNTL FALLS  LGT SNOW  18  13  80 SW7       30.27F WCI   9
6HR MIN TEMP:  -2; 6HR MAX TEMP:  18; 6HR PCP: TRACE;

ELY            CLOUDY    19  18  93 CALM      30.26F
CLOQUET        CLOUDY    25  19  80 S3        30.25F
WHEATON        CLOUDY    16  12  86 SE9       30.25F WCI   4
BRAINERD       CLOUDY    19  15  84 S8        30.26F WCI   9
6HR MIN TEMP:   0; 6HR MAX TEMP:  19; 6HR PCP: TRACE;

HIBBING        CLOUDY    20  15  81 CALM      30.25F
6HR MIN TEMP:  15; 6HR MAX TEMP:  20; 6HR PCP: TRACE;

ALEXANDRIA     PTSUNNY   18  12  77 MISG      30.24F
6HR MIN TEMP:   8; 6HR MAX TEMP:  18;

SAINT CLOUD    LGT SNOW  20  15  81 SE3       30.28F VSB 3/4
6HR MIN TEMP:   9; 6HR MAX TEMP:  20; 6HR PCP:  0.01;

MINNEAPOLIS    LGT SNOW  19  16  88 CALM      30.30F FOG
6HR MIN TEMP:  13; 6HR MAX TEMP:  19; 6HR PCP:  0.01;

$$

  *****  WEATHER ACROSS SOUTH DAKOTA  *****

CITY           SKY/WX    TMP DP  RH WIND       PRES   REMARKS
SIOUX FALLS    CLOUDY    24  19  81 S7        30.20F WCI  16
6HR MIN TEMP:  19; 6HR MAX TEMP:  24;

BROOKINGS      NOT AVBL
WATERTOWN      CLOUDY    21  17  84 S8        30.16F WCI  11
6HR MIN TEMP:  16; 6HR MAX TEMP:  21;

HURON          CLOUDY    24  19  81 S9        30.18F WCI  14
6HR MIN TEMP:  19; 6HR MAX TEMP:  24; 6HR PCP: TRACE;

SISSETON       NOT AVBL
ABERDEEN       CLOUDY    24  18  77 S9        30.17F WCI  14
6HR MIN TEMP:  18; 6HR MAX TEMP:  24;

MITCHELL       CLOUDY    25  21  85 S10       30.20F WCI  15
PIERRE         CLOUDY    25  22  88 SE6       30.10F WCI  18
6HR MIN TEMP:  21; 6HR MAX TEMP:  25; 6HR PCP: TRACE;

MOBRIDGE       CLOUDY    24  22  91 S9        30.06F FOG     WCI  14
RAPID CITY     SUNNY     29  24  82 VRB3      30.00F
6HR MIN TEMP:  20; 6HR MAX TEMP:  29;

$$

  *****  SOME WEATHER IN NEARBY STATES *****

CITY           SKY/WX    TMP DP  RH WIND       PRES   REMARKS
GLASGOW MT     CLOUDY    26  24  92 S3        29.94F FOG
6HR MIN TEMP:  24; 6HR MAX TEMP:  26;

GREAT FALLS MT CLOUDY    37  25  61 S20       29.91R
6HR MIN TEMP:  31; 6HR MAX TEMP:  37;

CHEYENNE WY    SUNNY     39  14  36 W18       30.02F
6HR MIN TEMP:  20; 6HR MAX TEMP:  39;

SCOTTSBLUFF NE MOSUNNY   13   9  84 NW6       30.07F FOG     WCI   4
6HR MIN TEMP:   6; 6HR MAX TEMP:  13; 6HR PCP: TRACE;

OMAHA NE       LGT SNOW  29  25  85 S7        30.25F WCI  22
6HR MIN TEMP:  26; 6HR MAX TEMP:  29; 6HR PCP:  0.02;

DES MOINES IA  FLURRIES  29  18  63 S3        30.27F
6HR MIN TEMP:  23; 6HR MAX TEMP:  29; 6HR PCP: TRACE;

DAVENPORT IA   CLOUDY    24  18  77 W3        30.28F
6HR MIN TEMP:  16; 6HR MAX TEMP:  24;

CHICAGO IL     CLOUDY    26  17  68 W6        30.25F WCI  19
6HR MIN TEMP:  19; 6HR MAX TEMP:  26;

EAU CLAIRE WI  CLOUDY    23  18  81 S3        30.28F
6HR MIN TEMP:  21; 6HR MAX TEMP:  24;

LA CROSSE WI   CLOUDY    25  18  74 S3        30.30F
6HR MIN TEMP:  21; 6HR MAX TEMP:  25;

$$

  *****  SOME NATIONAL WEATHER *****

CITY           SKY/WX    TMP DP  RH WIND       PRES   REMARKS
LA GUARDIA NY  PTSUNNY   41  25  53 NW17G26   29.95F
6HR MIN TEMP:  38; 6HR MAX TEMP:  42;

RALEIGH NC     PTSUNNY   49  22  34 VRB5      30.12F
6HR MIN TEMP:  33; 6HR MAX TEMP:  50;

ATLANTA GA     PTSUNNY   49  32  52 NW3       30.14F
6HR MIN TEMP:  36; 6HR MAX TEMP:  49;

NEW ORLEANS LA PTSUNNY   67  52  58 SE8       30.14F
6HR MIN TEMP:  53; 6HR MAX TEMP:  69;

OKLAHOMA CITY  CLOUDY    42  38  85 CALM      30.16F FOG
6HR MIN TEMP:  39; 6HR MAX TEMP:  42; 6HR PCP:  0.01;

ALBUQUERQUE NM PTSUNNY   40  31  70 VRB5      30.16F
6HR MIN TEMP:  29; 6HR MAX TEMP:  40;

SALT LAKE CITY MOSUNNY   39  34  82 S8        30.16S
6HR MIN TEMP:  29; 6HR MAX TEMP:  39;

LOS ANGELES CA PTSUNNY   57  46  66 VRB7      30.20R
6HR MIN TEMP:  49; 6HR MAX TEMP:  57; 6HR PCP: TRACE;

BOISE ID       CLOUDY    42  32  67 SE8       30.11R



USA.gov is the U.S. government's official web portal to all federal, state and local government web resources and services.